This demonstration page uses our WeatherBlox Daily Observations layout. Learn more.

Left ArrowRight Arrow

34.74481, -87.66753

Hourly Observations for May 17, 2022

Temp ( °F °C ) Dew Point ( °F °C ) Humidity (%) Winds ( mph kmh ) Pressure ( in mb ) Visibility ( mi km ) Precip ( " mm )
12:53 am 00:53 Clear 60 15.6 54 12.2 80 80 Calm 29.98 1015 10 16 0.00 0.00
1:53 am 01:53 Clear 59 15 55 12.8 87 87 Calm 29.97 1015 10 16 0.00 0.00
2:53 am 02:53 Clear 56 13.3 54 12.2 93 93 Calm 29.97 1015 10 16 0.00 0.00
3:53 am 03:53 Clear 55 12.8 53 11.7 93 93 Calm 29.98 1015 8 13 0.00 0.00
4:53 am 04:53 Clear 55 12.8 52 11.1 90 90 Calm 30.00 1016 7 11 0.00 0.00
5:26 am 05:26 Clear with Mist and Fog 54 12.2 52 11.1 93 93 Calm 30.03 1017 2 2 0.00 0.00
5:40 am 05:40 Clear with Mist and Fog 55 12.8 53 11.7 93 93 Calm 30.04 1017 4 6 0.00 0.00
5:53 am 05:53 Sunny 54 12.2 52 11.1 93 93 Calm 30.03 1017 7 11 0.00 0.00
6:53 am 06:53 Sunny 60 15.6 57 13.9 90 90 Calm 30.05 1018 10 16 0.00 0.00
7:53 am 07:53 Sunny 65 18.3 58 14.4 78 78 Calm 30.06 1018 10 16 0.00 0.00
8:53 am 08:53 Sunny 71 21.7 58 14.4 63 63 VRB 3 6 30.07 1018 10 16 0.00 0.00
9:53 am 09:53 Sunny 77 25 55 12.8 47 47 ESE 5 7 30.07 1018 10 16 0.00 0.00
10:53 am 10:53 Sunny 80 26.7 54 12.2 41 41 VRB 3 6 30.08 1019 10 16 0.00 0.00
11:53 am 11:53 Sunny 82 27.8 49 9.4 32 32 VRB 5 7 30.07 1018 10 16 0.00 0.00
12:53 pm 12:53 Sunny 82 27.8 49 9.4 32 32 S 3 6 30.04 1017 10 16 0.00 0.00
1:53 pm 13:53 Sunny 84 28.9 49 9.4 30 30 VRB 7 11 30.02 1017 10 16 0.00 0.00
2:53 pm 14:53 Sunny 86 30 50 10 29 29 Calm 30.02 1017 10 16 0.00 0.00
3:53 pm 15:53 Sunny 84 28.9 49 9.4 30 30 Calm 30.00 1016 10 16 0.00 0.00
4:53 pm 16:53 Sunny 86 30 50 10 29 29 VRB 3 6 29.98 1015 10 16 0.00 0.00
5:53 pm 17:53 Sunny 84 28.9 51 10.6 32 32 ENE 3 6 29.98 1015 10 16 0.00 0.00
6:53 pm 18:53 Sunny 79 26.1 55 12.8 44 44 E 5 7 29.96 1015 10 16 0.00 0.00
7:53 pm 19:53 Clear 72 22.2 57 13.9 59 59 E 5 7 29.97 1015 10 16 0.00 0.00
8:53 pm 20:53 Clear 68 20 58 14.4 70 70 Calm 30.00 1016 10 16 0.00 0.00
9:53 pm 21:53 Clear 65 18.3 58 14.4 78 78 ESE 3 6 30.00 1016 10 16 0.00 0.00
10:53 pm 22:53 Clear 64 17.8 58 14.4 81 81 Calm 30.01 1016 10 16 0.00 0.00
11:53 pm 23:53 Clear 63 17.2 58 14.4 84 84 Calm 30.01 1016 10 16 0.00 0.00

Powered by AerisWeather